Location: Lawrence
(38.9720°N, 95.2350°W)
Time: 22:38:34
(UTC-05:00)

JAS-1B - Visible Passes

Search period start: 24 June 2017 00:00
Search period end: 04 July 2017 00:00
Orbit: 911 x 1744 km, 99.1° (Epoch: 24 June)

Date Brightness Start Highest point End Pass type
(mag) Time Alt. Az. Time Alt. Az. Time Alt. Az.
24 Jun 9.3 01:29:01 10° E 01:32:18 16° ENE 01:35:45 10° NNE visible
24 Jun 6.8 03:20:02 41° S 03:22:06 72° WSW 03:28:17 10° NNW visible
25 Jun 8.9 01:47:02 12° ESE 01:50:58 22° ENE 01:55:36 10° NNE visible
25 Jun 7.2 03:39:18 36° SSW 03:41:10 49° W 03:47:10 10° NNW visible
26 Jun 8.4 02:06:19 18° ESE 02:09:41 31° ENE 02:15:09 10° N visible
26 Jun 7.7 03:58:34 28° SW 04:00:18 33° W 04:05:52 10° NNW visible
27 Jun 7.9 02:25:36 26° ESE 02:28:29 44° ENE 02:34:31 10° N visible
27 Jun 8.1 04:17:51 20° WSW 04:19:31 23° W 04:24:20 10° NW visible
28 Jun 7.3 02:44:52 35° SE 02:47:21 64° ENE 02:53:44 10° N visible
28 Jun 8.5 04:37:07 14° WSW 04:38:50 15° W 04:42:21 10° NW visible
29 Jun 9.4 01:14:11 10° E 01:16:52 13° NE 01:19:40 10° NNE visible
29 Jun 6.9 03:04:08 42° SSE 03:06:18 90° W 03:12:50 10° NNW visible
30 Jun 9.2 01:31:26 10° E 01:35:28 19° ENE 01:39:49 10° NNE visible
30 Jun 7.0 03:23:25 42° SSW 03:25:19 63° W 03:31:49 10° NNW visible
01 Jul 8.8 01:50:26 15° ESE 01:54:08 26° ENE 01:59:29 10° N visible
01 Jul 7.4 03:42:41 35° SW 03:44:26 44° W 03:50:40 10° NNW visible
02 Jul 8.3 02:09:42 22° ESE 02:12:52 37° ENE 02:18:57 10° N visible
02 Jul 7.9 04:01:57 26° WSW 04:03:38 30° W 04:09:19 10° NNW visible
03 Jul 7.7 02:28:59 31° SE 02:31:40 52° ENE 02:38:16 10° N visible
03 Jul 8.3 04:21:14 19° WSW 04:22:55 21° W 04:27:43 10° NW visible
